Location: Cactus School
(34.5700°N, 118.0931°W)
Time: 12:51:53
(UTC-07:00)

OTV 5 (USA 277) - Visible Passes

Search period start: 22 October 2019 00:00
Search period end: 01 November 2019 00:00
Orbit: 310 x 324 km, 54.5° (Epoch: 17 October)

Date Brightness Start Highest point End Pass type
(mag) Time Alt. Az. Time Alt. Az. Time Alt. Az.
22 Oct ? 06:09:22 20° WSW 06:09:52 22° SW 06:12:03 10° S visible
25 Oct ? 19:59:36 10° SW 19:59:57 13° SW 19:59:57 13° SW visible
26 Oct ? 18:41:15 10° SSE 18:42:48 14° SE 18:43:54 12° E visible
26 Oct ? 20:14:37 10° W 20:14:49 11° W 20:14:49 11° W visible
27 Oct ? 18:54:32 10° SSW 18:57:09 47° SE 18:58:38 22° ENE visible
28 Oct ? 19:09:05 10° WSW 19:11:41 41° NW 19:13:13 20° NNE visible
29 Oct ? 19:24:38 10° WNW 19:26:23 15° NW 19:27:41 12° N visible
